Regional Weather Roundup
Issued by NWS Bismarck, ND

Home | Current Version | Previous Version | Text Only | Print | Product List | Glossary On
Versions: 1 2 3 4 5 6 7 8 9 10 11 12 13 14 15 16 17 18 19 20 21 22 23 24 25 26 27 28 29 30 31 32 33 34 35 36 37 38 39 40 41 42 43 44 45 46 47 48 49 50
000
ASUS43 KBIS 181720
RWRBIS

NWR BROADCAST TEXT
NATIONAL WEATHER SERVICE BISMARCK ND
1200 PM CDT THU SEP 18 2014

NOTE: "FAIR" INDICATES FEW OR NO CLOUDS BELOW 12,000 FEET WITH NO
SIGNIFICANT WEATHER AND/OR OBSTRUCTIONS TO VISIBILITY.


CITY           SKY/WX    TMP DP  RH WIND       PRES   REMARKS
WILLISTON      MOSUNNY   71  54  54 S6        29.70F
MINOT          SUNNY     71  53  52 SE22G30   29.75F
MINOT AFB      NOT AVBL
BISMARCK       SUNNY     73  58  59 SE16      29.83F
DICKINSON      MOSUNNY   70  56  61 S16       29.76F
GARRISON         N/A     70  57  63 S14G20    29.78F
HETTINGER ARPT SUNNY     69  56  62 SE10      29.82F
JAMESTOWN      SUNNY     68  56  65 SE12      29.90F
BEACH            N/A     70  57  64 S15       29.76S
CARRINGTON     FAIR      68  57  68 S20G26    29.88F
CROSBY         FAIR      68  54  60 S14G24    29.67F
HARVEY         FAIR      73  54  49 S16G22    29.82F
HAZEN          FAIR      72  57  60 S14G24    29.78F
LINTON         FAIR      73  59  60 SE20G26   29.84F
MANDAN         FAIR      72  57  60 S20       29.84F
OAKES            N/A     73  59  60 SE13      29.92F
RUGBY          FAIR      70  54  56 S13G20    29.82F
STANLEY        FAIR      66  55  68 S18G25    29.74F
TIOGA          FAIR      66  55  68 S16G22    29.75S
WATFORD CITY   FAIR      75  54  46 S14       29.69F
$$

CITY           SKY/WX    TMP DP  RH WIND       PRES   REMARKS
GRAND FORKS    CLOUDY    55  51  86 S13       29.96F
GRAND FORKS AF NOT AVBL
DEVILS LAKE    SUNNY     68  52  56 S18G25    29.86F
FARGO          SUNNY     61  53  75 S13       29.97F
CANDO          FAIR      66  54  63 S20       29.86F
CAVALIER       CLOUDY    54  48  82 S13G20    29.93F
GRAFTON        CLOUDY    54  52  94 S15       29.94F
GWINNER        SUNNY     64  55  72 E13       29.96F
LANGDON        FAIR      72  50  46 S22G28    29.87F
ROLLA          FAIR      66  52  59 S16G25    29.85F
WALHALLA         N/A     55  52  88 SE13      29.92F
$$

CITY           SKY/WX    TMP DP  RH WIND       PRES   REMARKS
ABERDEEN       SUNNY     73  59  61 S15       29.91F
MOBRIDGE       SUNNY     74  62  66 S16G23    29.83F
BUFFALO          N/A     73  56  54 S8        29.76F
RAPID CITY     SUNNY     74  55  51 SE5       29.85F
GLASGOW        MOSUNNY   69  54  58 S7        29.65S
SIDNEY         MOSUNNY   72  55  56 S12       29.71S
WOLF POINT     SUNNY     71  54  54 SW3       29.66F
GLENDIVE       PTSUNNY   73  57  56 S10       29.75S
MILES CITY     PTSUNNY   72  52  49 S6        29.75S
BAKER          MOSUNNY   80  56  43 S9        29.78S
$$

CITY           SKY/WX    TMP DP  RH WIND       PRES   REMARKS
BILLINGS       LGT RAIN  67  53  61 W15       29.89R
GREAT FALLS    CLOUDY    70  45  40 S22G29    29.75R
REGINA         PTSUNNY   63  52  67 S15       29.61F
ESTEVAN        PTSUNNY   68  55  64 S13       29.69F
$$




USA.gov is the U.S. government's official web portal to all federal, state and local government web resources and services.